Regional Weather Roundup
Issued by NWS

Home | Current Version | Previous Version | Text Only | Print | Product List | Glossary On
Versions: 1 2 3 4 5 6 7 8 9 10 11 12 13 14 15 16 17 18 19 20 21 22 23 24 25 26 27 28 29 30 31 32 33 34 35 36 37 38 39 40 41 42 43 44 45 46 47 48 49 50
000
ASUS43 KFSD 261902
RWRSD

WEATHER ROUNDUP FOR SOUTH DAKOTA
NATIONAL WEATHER SERVICE SIOUX FALLS SD
200 PM CDT THU MAR 26 2015

NOTE: "FAIR" INDICATES FEW OR NO CLOUDS BELOW 12,000 FEET WITH NO
SIGNIFICANT WEATHER AND/OR OBSTRUCTIONS TO VISIBILITY.


SDZ001>005-009-010-012>017-262000-
NORTHWEST AND NORTH CENTRAL SOUTH DAKOTA

CITY           SKY/WX    TMP DP  RH WIND       PRES   REMARKS
BUFFALO          N/A     45  29  53 E7        30.07S
FAITH            N/A     35  29  78 NE8       30.16R WCI  29
MOBRIDGE       CLOUDY    38  25  59 E6        30.18S
$$

SDZ012>016-024>037-041>051-057-063-072>074-262000-
SOUTHWEST AND SOUTH CENTRAL SOUTH DAKOTA

CITY           SKY/WX    TMP DP  RH WIND       PRES   REMARKS
RAPID CTY ARPT PTSUNNY   50  30  46 N23G31    30.10R
PIERRE         LGT SNOW  32  30  92 SW3       30.19R FOG
CUSTER         CLOUDY    43  23  45 NW16G26   30.08S
ELLSWORTH AFB  CLOUDY    47  29  50 N18G29    30.10R
PHILIP         PTSUNNY   42  29  59 NE15      30.15R
PINE RIDGE     CLOUDY    52  26  36 N16G22    30.08F
SPEARFISH      FAIR      46  28  49 NW16      30.13S
WINNER         LGT SNOW  33  30  88 NE13      30.15R VSB 1   WCI  24
$$

SDZ004>011-016>023-039-040-262000-
NORTHEAST SOUTH DAKOTA

CITY           SKY/WX    TMP DP  RH WIND       PRES   REMARKS
ABERDEEN       CLOUDY    37  21  52 N13       30.23S
WATERTOWN      CLOUDY    34  19  54 N14G23    30.17R WCI  25
SISSETON         N/A     32  18  56 N20       30.20F WCI  20
$$

SDZ017-020-022-023-036>040-048>070-262000-
SOUTHEAST SOUTH DAKOTA

CITY           SKY/WX    TMP DP  RH WIND       PRES   REMARKS
SIOUX FALLS    CLOUDY    39  23  52 N8        30.15F
HURON          CLOUDY    37  25  61 N5        30.19S
MITCHELL       CLOUDY    39  23  52 N9        30.19S
YANKTON        CLOUDY    39  19  45 N7        30.17F
$$

ABBREVIATIONS USED IN REMARKS
   TC - TEMPERATURE IN CELSIUS
  WCI - WIND CHILL INDEX
   HX - HEAT INDEX
  VSB - VISIBILITY



USA.gov is the U.S. government's official web portal to all federal, state and local government web resources and services.